Terug naar catalogus

COSMOS 382

ActiefMilitairMEO
NORAD 4786·PAYLOAD·🇷🇺 Russia

Gelanceerd Dec 2, 1970 vanaf Baikonur Cosmodrome

Loading…

Volgende Passages

TLE

Source: Space-Track
1 04786U 70103A   26229.04264146 -.00000025  00000-0  00000-0 0  9992
2 04786  55.8569 228.7923 1365026  15.7188  13.9181  8.42041031713693

Volg COSMOS 382 in realtime met AllMySat

Download on the App Store